Skip Page Navigation
NASA JPL Caltech
NASA Logo - Jet Propulsion Laboratory + View the NASA Portal
+ Center for Near-Earth Object Studies
JPL Home Earth Solar System Stars & Galaxies Technology
JPL Solar System Dynamics
BODIES ORBITS EPHEMERIDES TOOLS PHYSICAL DATA DISCOVERY FAQ SITE MAP
JPL Small-Body Database Browser
Search: [ help ]  
187205 (2005 ST92)
Classification: Main-belt Asteroid          SPK-ID: 2187205
Ephemeris | Orbit Diagram | Orbital Elements | Mission Design | Physical Parameters | Discovery Circumstances ]

[ show orbit diagram ]
Orbital Elements at Epoch 2459200.5 (2020-Dec-17.0) TDB
Reference: JPL 17 (heliocentric ecliptic J2000)
 Element Value Uncertainty (1-sigma)   Units 
e .08698659004185519 5.4169e-08  
a 2.641609027924317 2.1916e-08 au
q 2.411824466361401 1.4466e-07 au
i 2.218416068935409 4.8553e-06 deg
node 228.1528377711234 0.000157 deg
peri 69.67142398523292 0.00016437 deg
M 267.5302551183628 5.639e-05 deg
tp 2459603.308286109419
(2022-Jan-23.80828611)
0.00024826 TDB
period 1568.199233003261
4.29
1.9515e-05
5.343e-08
d
yr
n .229562668074109 2.8568e-09 deg/d
Q 2.871393589487233 2.3822e-08 au
  Orbit Determination Parameters
   # obs. used (total)      262  
   data-arc span      8010 days (21.93 yr)  
   first obs. used      1999-03-20  
   last obs. used      2021-02-22  
   planetary ephem.      DE441  
   SB-pert. ephem.      SB441-N16  
   condition code      0  
   norm. resid. RMS      .55971  
   source      ORB  
   producer      Otto Matic  
   solution date      2021-Apr-13 21:54:26  

Additional Information
 Earth MOID = 1.39515 au 
 Jupiter MOID = 2.27407 au 
 T_jup = 3.388 
[ show covariance matrix ]

Ephemeris | Orbit Diagram | Orbital Elements | Mission Design | Physical Parameters | Discovery Circumstances ]

Physical Parameter Table
Parameter Symbol Value Units Sigma Reference Notes
absolute magnitude H 16.50   n/a E2021B55  

187205 (2005 ST92)          Discovered 2005-Sep-24 by Spacewatch at Kitt Peak
Reference: 20080520/Numbers.arcLast Updated: 2008-05-22

Alternate Designations
 2005 ST92 = 2001 XD258 
Ephemeris | Orbit Diagram | Orbital Elements | Mission Design | Physical Parameters | Discovery Circumstances ]
ABOUT SSD CREDITS/AWARDS PRIVACY/COPYRIGHT GLOSSARY LINKS
FirstGov 2021-Apr-23 06:45 UT
(server date/time)  
NASA Home Page
Site Manager:   Ryan S. Park
Webmaster  Alan B. Chamberlin